Starlink 6061

operational
NORAD ID: 56795 Int'l Des: 2023-078 Owner: SPXS Country: US Constellation: starlink
LEOCIRCULAR

Über Starlink 6061

Beschreibung wird geladen...

Live-Position

3D-Globus wird geladen...

Nächste Überflüge

Höhenverlauf

Altitude vs Time

uPlot chart will show altitude changes over time

Zweizeiliger Elementsatz

1 56795U 23078AE 26062.18656321 .00003029 00000-0 26141-3 0 9991
2 56795 70.0014 340.6822 0002661 261.2215 98.8643 14.98353778152208
Epoch: 3. März 2026 • Age: 26 hours

Aktueller Status

Höhe 575.6 km
Geschwindigkeit 7.58 km/s
Subsatellitenpunkt 28.40°N, 44.29°W
Startdatum 31. Mai 2023
Alter 2.7 years
Typ internet

Technische Details

Klassifizierung Payload
Masse 305.00 kg
Trockenmasse 290.00 kg
Gesamtmasse 305.00 kg
Länge 0.20 m
Durchmesser 2.80 m
Spannweite 9.00 m
Form Box + pan
Hersteller SPXS
Bus-Typ Starlink
Phasenstatus In Orbit
Besitzer/Staat SPXS/US

Große Konstellationen

Loading constellations...